Laramie, WY

4:59 AM MDT on May 25, 2017 (GMT -0600)
Laramie Regional

Weather History for KLAR - December, 2013

Change the Weather History Date:

Tuesday, December 31, 2013

  Actual Average Record
Temperature  
Mean Temperature 33 °F 21 °F  
Max Temperature 38 °F 33 °F 52 °F (1980)
Min Temperature 27 °F 10 °F -34 °F (2014)
Degree Days  
Heating Degree Days 32 44  
Month to date heating degree days 1401 1356  
Since 1 July heating degree days 3523 3673  
Cooling Degree Days 0 0  
Month to date cooling degree days 0 0  
Year to date cooling degree days 162 67  
Moisture  
Dew Point 21 °F    
Average Humidity 65    
Maximum Humidity 78    
Minimum Humidity 52    
Precipitation  
Precipitation 0.00 in 0.01 in 0.63 in (1975)
Month to date precipitation 0.10 0.32  
Year to date precipitation 12.02 10.92  
Sea Level Pressure  
Sea Level Pressure 30.00 in    
Wind  
Wind Speed 21 mph (SW)    
Max Wind Speed 41 mph    
Max Gust Speed 48 mph    
Visibility 10 miles    
Events      
T = Trace of Precipitation, MM = Missing Value Source: NWS Daily Summary

Daily Weather History Graph

Daily Weather History Graph

Search for Another Location

Airport or City:

Trip Planner

Search our weather history database for the weather conditions in past years. The results will help you decide how hot, cold, wet, or windy it might be!

Date:

Astronomy

Dec. 31, 2013 Rise Set
Actual Time 7:28 AM MST 4:43 PM MST
Civil Twilight 6:57 AM MST 5:14 PM MST
Nautical Twilight 6:22 AM MST 5:49 PM MST
Astronomical Twilight 5:49 AM MST 6:22 PM MST
Moon 6:23 AM MST (12/31) 4:22 PM MST (12/31)
Length of Visible Light 10h 17m
Length of Day
9h 14m
Waning Crescent, 1% of the Moon is Illuminated
Dec 31
Waning Crescent
Jan 1
New
Jan 7
First Quarter
Jan 15
Full
Jan 23
Last Quarter

Hourly Weather History & Observations

Time (MST) Temp. Windchill Dew Point Humidity Pressure Visibility Wind Dir Wind Speed Gust Speed Precip Events Conditions
12:53 AM 30.0 °F 18.7 °F 15.1 °F 54% 30.05 in 10.0 mi SSW 16.1 mph 26.5 mph N/A   Clear
1:25 AM 30.2 °F 15.9 °F 15.8 °F 55% 30.01 in 10.0 mi WSW 26.5 mph 36.8 mph N/A   Clear
1:53 AM 30.9 °F 18.4 °F 16.0 °F 54% 30.04 in 10.0 mi WSW 20.7 mph 33.4 mph N/A   Clear
2:53 AM 30.9 °F 17.2 °F 19.0 °F 61% 30.04 in 10.0 mi WSW 25.3 mph 35.7 mph N/A   Clear
3:53 AM 28.0 °F 18.6 °F 19.9 °F 72% 30.08 in 10.0 mi SW 10.4 mph - N/A   Overcast
4:53 AM 30.0 °F 20.0 °F 21.0 °F 69% 30.06 in 10.0 mi SW 12.7 mph - N/A   Mostly Cloudy
5:53 AM 28.0 °F 17.0 °F 23.0 °F 81% 30.06 in 10.0 mi WSW 13.8 mph 20.7 mph N/A   Overcast
6:53 AM 30.0 °F 15.7 °F 21.9 °F 72% 30.03 in 10.0 mi SW 26.5 mph 32.2 mph N/A   Clear
7:53 AM 30.0 °F 16.6 °F 21.0 °F 69% 30.05 in 10.0 mi WSW 23.0 mph - N/A   Clear
8:53 AM 32.0 °F 22.1 °F 21.9 °F 66% 30.09 in 10.0 mi SW 13.8 mph - N/A   Clear
9:53 AM 34.0 °F 21.0 °F 21.9 °F 61% 30.07 in 10.0 mi WSW 26.5 mph 31.1 mph N/A   Mostly Cloudy
10:53 AM 34.0 °F 21.0 °F 21.9 °F 61% 30.06 in 10.0 mi WSW 26.5 mph 31.1 mph N/A   Mostly Cloudy
11:53 AM 37.0 °F 24.7 °F 21.9 °F 54% 29.99 in 10.0 mi WSW 28.8 mph 35.7 mph N/A   Clear
12:53 PM 37.9 °F 25.9 °F 21.9 °F 53% 29.97 in 10.0 mi West 28.8 mph 38.0 mph N/A   Clear
1:53 PM 37.9 °F 28.9 °F 21.9 °F 53% 29.97 in 10.0 mi West 16.1 mph 26.5 mph N/A   Mostly Cloudy
2:53 PM 36.0 °F 24.4 °F 21.0 °F 55% 29.97 in 10.0 mi WSW 23.0 mph - N/A   Partly Cloudy
3:53 PM 35.1 °F 23.8 °F 21.9 °F 59% 29.99 in 10.0 mi SW 20.7 mph 29.9 mph N/A   Mostly Cloudy
4:53 PM 34.0 °F 26.6 °F 21.9 °F 61% 30.00 in 10.0 mi SSW 9.2 mph 18.4 mph N/A   Overcast
5:53 PM 34.0 °F 18.7 °F 21.9 °F 61% 29.93 in 10.0 mi WSW 39.1 mph - N/A   Clear
6:53 PM 34.0 °F 19.3 °F 21.0 °F 59% 29.91 in 10.0 mi WSW 35.7 mph 42.6 mph N/A   Clear
7:53 PM 32.0 °F 21.6 °F 21.0 °F 64% 29.96 in 10.0 mi SW 15.0 mph 25.3 mph N/A   Clear
8:37 PM 32.0 °F 18.4 °F 21.2 °F 64% 29.94 in 10.0 mi WSW 26.5 mph 31.1 mph N/A   Clear
8:53 PM 33.1 °F 20.1 °F 21.9 °F 64% 29.93 in 10.0 mi WSW 25.3 mph - N/A   Clear
9:53 PM 33.1 °F 26.1 °F 21.9 °F 64% 29.91 in 10.0 mi South 8.1 mph - N/A   Overcast
10:53 PM 34.0 °F 24.2 °F 21.9 °F 61% 29.90 in 10.0 mi SSW 15.0 mph 25.3 mph N/A   Overcast
11:53 PM 30.9 °F 21.2 °F 25.0 °F 79% 29.91 in 10.0 mi SW 12.7 mph - N/A   Overcast